User: anonymous   Login
Location: Caltech
(34.1382°N, 118.1253°W)
Time: 17:29:06
(UTC-08:00)
Language:

Uribyol 2 - Orbit

View from above orbital plane
View from above orbital plane
View from above satellite
View from above satellite

Ground track
Ground track

The orbit data is extracted from the following two-line orbital elements,

1 22828U 93061F   18048.49436002 -.00000034  00000-0  45201-5 0  9995
2 22828  98.8334  21.2158 0008920 296.7813  63.2456 14.30663250241017
Epoch (UTC): 17 February 2018 11:51:52
Eccentricity: 0.0008920
inclination: 98.8334°
perigee height: 783 km
apogee height: 796 km
right ascension of ascending node: 21.2158°
argument of perigee: 296.7813°
revolutions per day: 14.30663250
mean anomaly at epoch: 63.2456°
orbit number at epoch: 24101

The dashed part of the orbit path shows where the satellite is in the earth's shadow,  

DLR